1486170000.79,19389,9.81,72744.8,-5.99,-20.09,-16.93,0,*59
1486170001.98,19390,9.81,72744.5,-6.01,-20.09,-16.93,0,*53
1486170003.17,19391,9.81,72746.3,-6.01,-20.09,-16.93,0,*52
1486170004.4,19392,9.81,72744.5,-6.01,-20.09,-17.03,0,*59
1486170005.66,19393,9.81,72746.5,-6.05,-20.15,-17.07,0,*55
1486170006.88,19394,9.81,72744.8,-5.99,-20.09,-16.93,0,*55
1486170008.07,19395,9.81,72748.5,-6.01,-20.09,-16.93,0,*56
1486170009.29,19396,9.81,72746.0,-6.01,-20.19,-16.93,0,*54
1486170010.54,19397,9.81,72746.8,-6.01,-20.19,-17.03,0,*5D
1486170011.8,19398,9.81,72744.8,-6.01,-20.19,-17.03,0,*52
1486170013.02,19399,9.81,72746.5,-6.01,-20.19,-16.93,0,*5B
1486170014.27,19400,9.81,72746.0,-5.99,-20.09,-17.07,0,*53
1486170015.54,19401,9.81,72744.3,-5.99,-20.19,-17.17,0,*52
1486170016.77,19402,9.81,72748.5,-6.05,-20.29,-17.11,0,*52
1486170018.0,19403,9.81,72744.5,-6.01,-20.09,-17.07,0,*52
1486170019.25,19404,9.81,72748.3,-6.05,-20.15,-17.11,0,*5B
1486170020.48,19405,9.81,72752.0,-6.05,-20.25,-17.11,0,*59
1486170021.72,19406,9.81,72748.3,-6.05,-20.25,-17.07,0,*5D
1486170022.95,19407,9.81,72748.3,-6.01,-20.05,-17.03,0,*5E
1486170024.17,19408,9.81,72748.3,-6.01,-20.05,-17.03,0,*51
1486170025.4,19409,9.81,72744.3,-6.01,-20.05,-17.03,0,*50
1486170026.62,19410,9.81,72746.8,-6.01,-20.05,-17.03,0,*58
1486170027.87,19411,9.81,72750.0,-6.01,-20.19,-17.03,0,*54
1486170029.1,19412,9.81,72746.0,-6.01,-20.09,-17.03,0,*56
1486170030.36,19413,9.81,72746.3,-6.01,-20.19,-17.07,0,*52
1486170031.6,19414,9.81,72742.8,-6.01,-20.19,-17.17,0,*54
1486170032.85,19415,9.81,72746.0,-6.01,-20.35,-17.17,0,*5B
1486170034.1,19416,9.81,72744.8,-6.01,-20.35,-17.21,0,*5D
1486170035.35,19417,9.81,72744.8,-5.99,-20.25,-17.17,0,*5A
1486170036.58,19418,9.81,72746.3,-6.01,-20.09,-17.07,0,*58
1486170037.81,19419,9.81,72746.5,-6.01,-20.25,-17.07,0,*57
1486170039.06,19420,9.81,72744.0,-6.01,-20.35,-17.17,0,*5D
1486170040.31,19421,9.81,72744.0,-6.01,-20.35,-17.07,0,*5D
1486170041.55,19422,9.81,72746.5,-6.01,-20.25,-17.07,0,*5F
1486170042.79,19423,9.81,72746.8,-6.01,-20.35,-17.17,0,*5E
1486170044.03,19424,9.81,72746.8,-6.01,-20.25,-17.07,0,*59
1486170045.28,19425,9.81,72746.0,-6.01,-20.35,-17.21,0,*5D
1486170046.51,19426,9.81,72744.8,-6.01,-20.25,-17.07,0,*5B
1486170047.74,19427,9.81,72744.5,-6.01,-20.25,-17.21,0,*5E
1486170048.96,19428,9.81,72746.0,-6.01,-20.25,-17.17,0,*54
1486170050.21,19429,9.81,72746.3,-6.01,-20.35,-17.21,0,*51
1486170051.45,19430,9.81,72746.5,-6.01,-20.25,-17.07,0,*5C
1486170052.71,19431,9.81,72744.5,-6.01,-20.19,-17.07,0,*52
1486170053.94,19432,9.81,72748.3,-6.05,-20.25,-17.11,0,*5D
1486170055.16,19433,9.81,72744.3,-6.05,-20.29,-17.11,0,*50
1486170056.38,19434,9.81,72746.0,-6.05,-20.29,-17.11,0,*57
1486170057.63,19435,9.81,72744.3,-6.01,-20.35,-17.21,0,*5C
1486170058.88,19436,9.81,72746.8,-6.01,-20.35,-17.17,0,*5A
1486170060.1,19437,9.81,72746.0,-6.05,-20.29,-17.21,0,*57
1486170061.34,19438,9.81,72746.0,-6.05,-20.39,-17.21,0,*59
1486170062.55,19439,9.81,72746.3,-6.01,-20.35,-17.31,0,*51
1486170063.79,19440,9.81,72746.3,-6.05,-20.39,-17.25,0,*52
1486170065.02,19441,9.81,72746.5,-6.05,-20.39,-17.25,0,*53
1486170066.23,19442,9.81,72742.8,-6.05,-20.39,-17.35,0,*51
1486170067.45,19443,9.81,72746.0,-6.05,-20.39,-17.35,0,*50
1486170068.67,19444,9.81,72744.0,-6.05,-20.43,-17.35,0,*5A
1486170069.9,19445,9.81,72746.0,-6.05,-20.43,-17.41,0,*58
1486170071.16,19446,9.81,72744.5,-6.05,-20.53,-17.41,0,*5A
1486170072.39,19447,9.81,72746.5,-6.05,-20.39,-17.25,0,*55
1486170073.64,19448,9.81,72742.8,-6.01,-20.35,-17.17,0,*53
1486170074.86,19449,9.81,72744.5,-6.05,-20.29,-17.21,0,*5E
1486170076.08,19450,9.81,72746.5,-6.05,-20.29,-17.25,0,*52
1486170077.3,19451,9.81,72744.0,-6.05,-20.39,-17.35,0,*53
1486170078.53,19452,9.81,72744.8,-6.05,-20.39,-17.25,0,*51
1486170079.82,19453,9.81,72744.5,-6.07,-20.49,-17.45,0,*53
1486170081.03,19454,9.81,72748.0,-6.05,-20.43,-17.35,0,*5B
1486170082.3,19455,9.81,72746.0,-6.07,-20.59,-17.45,0,*54
1486170083.56,19456,9.81,72750.0,-6.07,-20.59,-17.45,0,*57
1486170084.85,19457,9.81,72750.0,-6.07,-20.49,-17.45,0,*57
1486170086.1,19458,9.81,72748.3,-6.01,-20.35,-17.21,0,*57
1486170087.35,19459,9.81,72746.8,-6.05,-20.35,-17.25,0,*56
1486170088.58,19460,9.81,72746.3,-6.05,-20.39,-17.21,0,*54
1486170089.81,19461,9.81,72750.0,-6.05,-20.43,-17.25,0,*5C
1486170091.03,19462,9.81,72740.0,-6.05,-20.43,-17.35,0,*5E
1486170092.29,19463,9.81,72744.8,-6.05,-20.53,-17.41,0,*5D
1486170093.51,19464,9.81,72746.0,-6.05,-20.39,-17.35,0,*55
1486170094.72,19465,9.81,72744.5,-6.05,-20.39,-17.35,0,*54
1486170096.01,19466,9.81,72742.8,-6.07,-20.49,-17.45,0,*55
1486170097.26,19467,9.81,72744.8,-6.05,-20.53,-17.41,0,*59
1486170098.48,19468,9.81,72748.5,-6.05,-20.43,-17.35,0,*54
1486170099.7,19469,9.81,72746.3,-6.05,-20.43,-17.35,0,*55
1486170100.92,19470,9.81,72744.0,-6.05,-20.39,-17.35,0,*50
1486170102.17,19471,9.81,72746.3,-6.05,-20.53,-17.55,0,*5B
1486170103.41,19472,9.81,72744.8,-6.05,-20.43,-17.41,0,*5C
1486170104.64,19473,9.81,72744.0,-6.05,-20.53,-17.49,0,*54
1486170105.9,19474,9.81,72746.8,-6.05,-20.53,-17.55,0,*5E
1486170107.14,19475,9.81,72744.5,-6.05,-20.43,-17.41,0,*5B
1486170108.39,19476,9.81,72746.3,-6.05,-20.53,-17.55,0,*5C
1486170109.65,19477,9.81,72740.5,-6.05,-20.53,-17.55,0,*5D
1486170110.89,19478,9.81,72746.5,-6.05,-20.43,-17.41,0,*56
1486170112.12,19479,9.81,72744.3,-6.07,-20.43,-17.31,0,*52
1486170113.39,19480,9.81,72746.0,-6.07,-20.43,-17.41,0,*53
1486170114.61,19481,9.81,72744.3,-6.05,-20.43,-17.35,0,*53
1486170115.87,19482,9.81,72746.8,-6.07,-20.59,-17.55,0,*5F
1486170117.13,19483,9.81,72740.8,-6.07,-20.59,-17.45,0,*5F
1486170118.37,19484,9.81,72744.0,-6.05,-20.53,-17.35,0,*57
1486170119.59,19485,9.81,72744.8,-6.05,-20.39,-17.35,0,*5A
1486170120.85,19486,9.81,72744.0,-6.07,-20.43,-17.41,0,*55
1486170122.08,19487,9.81,72746.3,-6.05,-20.53,-17.49,0,*5F
1486170123.35,19488,9.81,72748.3,-6.07,-20.59,-17.45,0,*54
1486170124.59,19489,9.81,72748.0,-6.05,-20.43,-17.41,0,*58
1486170125.87,19490,9.81,72746.5,-6.07,-20.49,-17.41,0,*58
1486170127.09,19491,9.81,72742.3,-6.05,-20.43,-17.35,0,*52
1486170128.32,19492,9.81,72746.5,-6.05,-20.53,-17.49,0,*5B
1486170129.56,19493,9.81,72744.5,-6.05,-20.43,-17.41,0,*53
1486170130.82,19494,9.81,72744.8,-6.07,-20.59,-17.55,0,*58
1486170132.06,19495,9.81,72744.8,-6.05,-20.59,-17.55,0,*5B
1486170133.32,19496,9.81,72744.8,-6.07,-20.63,-17.59,0,*5F
1486170134.53,19497,9.81,72744.0,-6.05,-20.43,-17.49,0,*5F
1486170135.76,19498,9.81,72746.3,-6.05,-20.53,-17.49,0,*51
1486170136.99,19499,9.81,72744.0,-6.05,-20.53,-17.49,0,*50
1486170138.2,19500,9.81,72746.5,-6.05,-20.59,-17.49,0,*5B
1486170139.46,19501,9.81,72746.0,-6.07,-20.63,-17.59,0,*50
1486170140.7,19502,9.81,72746.8,-6.05,-20.63,-17.55,0,*5D
1486170141.95,19503,9.81,72746.3,-6.05,-20.53,-17.55,0,*5F
1486170143.18,19504,9.81,72742.8,-6.05,-20.53,-17.49,0,*55
1486170144.4,19505,9.81,72746.5,-6.05,-20.43,-17.35,0,*5E
1486170145.69,19506,9.81,72742.0,-6.07,-20.49,-17.41,0,*56
1486170146.92,19507,9.81,72746.8,-6.05,-20.53,-17.49,0,*56
1486170148.15,19508,9.81,72744.0,-6.05,-20.53,-17.49,0,*59
1486170149.38,19509,9.81,72746.5,-6.05,-20.53,-17.49,0,*58
1486170150.63,19510,9.81,72742.8,-6.05,-20.53,-17.55,0,*5D
1486170151.89,19511,9.81,72750.5,-6.05,-20.53,-17.55,0,*5C
1486170153.12,19512,9.81,72744.0,-6.05,-20.63,-17.63,0,*59
1486170154.36,19513,9.81,72744.5,-6.05,-20.59,-17.55,0,*54
1486170155.6,19514,9.81,72744.0,-6.05,-20.59,-17.63,0,*56
1486170156.83,19515,9.81,72748.3,-6.07,-20.69,-17.69,0,*5C
1486170158.06,19516,9.81,72748.3,-6.05,-20.63,-17.55,0,*58
1486170159.3,19517,9.81,72746.0,-6.05,-20.59,-17.55,0,*50
1486170160.51,19518,9.81,72744.0,-6.05,-20.63,-17.69,0,*59
1486170161.74,19519,9.81,72748.8,-6.05,-20.63,-17.55,0,*57
1486170162.98,19520,9.81,72746.0,-6.05,-20.59,-17.55,0,*54
1486170164.21,19521,9.81,72744.3,-6.05,-20.59,-17.55,0,*55
1486170165.45,19522,9.81,72744.3,-6.05,-20.59,-17.55,0,*56
1486170166.66,19523,9.81,72744.0,-6.05,-20.63,-17.69,0,*51
1486170167.86,19524,9.81,72744.5,-6.05,-20.73,-17.73,0,*5C
1486170169.09,19525,9.81,72746.5,-6.07,-20.69,-17.73,0,*54
1486170170.33,19526,9.81,72744.8,-6.05,-20.59,-17.63,0,*57
1486170171.59,19527,9.81,72750.8,-6.07,-20.63,-17.59,0,*54
1486170172.82,19528,9.81,72746.3,-6.05,-20.53,-17.49,0,*5B
1486170174.06,19529,9.81,72746.8,-6.05,-20.59,-17.63,0,*58
1486170175.27,19530,9.81,72744.5,-6.05,-20.59,-17.69,0,*5A
1486170176.48,19531,9.81,72746.8,-6.05,-20.59,-17.49,0,*59
1486170177.72,19532,9.81,72746.0,-6.05,-20.59,-17.55,0,*57
1486170178.95,19533,9.81,72744.0,-6.05,-20.59,-17.63,0,*53
1486170180.18,19534,9.81,72744.5,-6.05,-20.63,-17.63,0,*5D
1486170181.39,19535,9.81,72750.0,-6.05,-20.63,-17.73,0,*5D
1486170182.59,19536,9.81,72744.8,-6.05,-20.73,-17.73,0,*5F
1486170183.79,19537,9.81,72746.0,-6.05,-20.73,-17.73,0,*5E
1486170185.0,19538,9.81,72748.5,-6.05,-20.73,-17.69,0,*5A
1486170186.21,19539,9.81,72744.3,-6.05,-20.63,-17.73,0,*51
1486170187.44,19540,9.81,72746.5,-6.05,-20.59,-17.55,0,*52
1486170188.68,19541,9.81,72744.0,-6.05,-20.59,-17.63,0,*56
1486170189.91,19542,9.81,72746.5,-6.05,-20.59,-17.63,0,*55
1486170191.12,19543,9.81,72742.3,-6.05,-20.63,-17.69,0,*57
1486170192.33,19544,9.81,72746.5,-6.05,-20.63,-17.73,0,*5B
1486170193.54,19545,9.81,72744.5,-6.05,-20.63,-17.69,0,*51
1486170194.74,19546,9.81,72746.0,-6.05,-20.73,-17.73,0,*58
1486170195.94,19547,9.81,72746.8,-6.05,-20.73,-17.73,0,*59
1486170197.18,19548,9.81,72742.5,-6.05,-20.79,-17.87,0,*57
1486170198.39,19549,9.81,72744.5,-6.05,-20.89,-17.83,0,*5D
1486170199.67,19550,9.81,72744.8,-6.07,-20.83,-17.93,0,*5C
1486170200.9,19551,9.81,72742.3,-6.01,-20.69,-17.79,0,*5B
1486170202.14,19552,9.81,72744.8,-6.05,-20.79,-17.83,0,*58
1486170203.35,19553,9.81,72746.5,-6.05,-20.89,-17.87,0,*52
1486170204.59,19554,9.81,72744.5,-6.05,-20.79,-17.83,0,*5E
1486170205.8,19555,9.81,72746.8,-6.05,-20.89,-17.87,0,*54
1486170207.02,19556,9.81,72746.5,-6.05,-20.89,-17.83,0,*53
1486170208.22,19557,9.81,72744.3,-6.01,-20.73,-17.83,0,*53
1486170209.49,19558,9.81,72746.0,-6.07,-20.83,-17.87,0,*51
1486170210.75,19559,9.81,72744.0,-6.07,-20.83,-17.87,0,*50
1486170211.96,19560,9.81,72744.3,-6.05,-20.73,-17.87,0,*57
1486170213.17,19561,9.81,72744.0,-6.05,-20.63,-17.73,0,*5C
1486170214.41,19562,9.81,72746.3,-6.07,-20.69,-17.87,0,*5C
1486170215.69,19563,9.81,72744.5,-6.07,-20.83,-17.79,0,*58
1486170216.89,19564,9.81,72742.5,-6.01,-20.73,-17.83,0,*53
1486170218.1,19565,9.81,72740.8,-6.01,-20.69,-17.69,0,*5D
1486170219.3,19566,9.81,72742.0,-6.01,-20.69,-17.69,0,*5E
1486170220.51,19567,9.81,72746.8,-6.05,-20.73,-17.83,0,*54
1486170221.72,19568,9.81,72742.5,-6.05,-20.73,-17.87,0,*5F
1486170222.95,19569,9.81,72746.0,-6.05,-20.79,-17.73,0,*5F
1486170224.16,19570,9.81,72746.0,-6.05,-20.59,-17.73,0,*55
1486170225.36,19571,9.81,72744.3,-6.05,-20.63,-17.73,0,*5D
1486170226.57,19572,9.81,72744.0,-6.05,-20.63,-17.73,0,*5E
1486170227.79,19573,9.81,72740.0,-6.05,-20.63,-17.83,0,*50
1486170228.99,19574,9.81,72744.0,-6.05,-20.73,-17.83,0,*56
1486170230.23,19575,9.81,72736.5,-6.05,-20.79,-17.83,0,*5D
1486170231.44,19576,9.81,72740.0,-6.05,-20.73,-17.83,0,*54
1486170232.67,19577,9.81,72740.3,-6.01,-20.59,-17.79,0,*5C
1486170233.88,19578,9.81,72740.8,-6.01,-20.69,-17.69,0,*51
1486170235.11,19579,9.81,72740.5,-6.01,-20.59,-17.63,0,*59
1486170236.34,19580,9.81,72742.5,-6.01,-20.69,-17.79,0,*57
1486170237.56,19581,9.81,72744.8,-6.01,-20.69,-17.79,0,*56
1486170238.79,19582,9.81,72740.5,-6.01,-20.69,-17.79,0,*55
1486170240.02,19583,9.81,72742.0,-5.99,-20.73,-17.83,0,*58
1486170241.25,19584,9.81,72742.3,-5.99,-20.69,-17.83,0,*54
1486170242.49,19585,9.81,72740.3,-6.01,-20.59,-17.79,0,*51
1486170243.72,19586,9.81,72740.0,-6.01,-20.59,-17.63,0,*59
1486170244.93,19587,9.81,72740.0,-6.01,-20.59,-17.69,0,*52
1486170246.16,19588,9.81,72742.3,-6.01,-20.53,-17.69,0,*57
1486170247.39,19589,9.81,72740.5,-6.01,-20.59,-17.63,0,*56
1486170248.6,19590,9.81,72742.3,-6.01,-20.59,-17.69,0,*54
1486170249.84,19591,9.81,72740.8,-6.01,-20.53,-17.83,0,*5B
1486170251.08,19592,9.81,72740.0,-5.99,-20.59,-17.83,0,*50
1486170252.29,19593,9.81,72744.3,-6.01,-20.59,-17.83,0,*53
1486170253.5,19594,9.81,72740.3,-6.01,-20.69,-17.83,0,*57
1486170254.73,19595,9.81,72744.5,-5.99,-20.73,-17.83,0,*5F
1486170255.98,19596,9.81,72742.0,-5.99,-20.69,-17.79,0,*52
1486170257.21,19597,9.81,72742.0,-6.01,-20.69,-17.79,0,*51
1486170258.44,19598,9.81,72740.0,-5.99,-20.59,-17.83,0,*5A
1486170259.68,19599,9.81,72742.8,-5.99,-20.59,-17.83,0,*5B
1486170260.91,19600,9.81,72740.5,-5.99,-20.69,-17.83,0,*5B
1486170262.17,19601,9.81,72740.0,-5.99,-20.69,-17.79,0,*5F
1486170263.4,19602,9.81,72738.0,-5.99,-20.73,-17.83,0,*52
1486170264.6,19603,9.81,72738.8,-5.97,-20.69,-17.87,0,*52
1486170265.85,19604,9.81,72742.3,-5.99,-20.69,-17.93,0,*5E
1486170267.1,19605,9.81,72738.8,-5.99,-20.69,-17.93,0,*5F
1486170268.31,19606,9.81,72736.8,-5.97,-20.63,-17.87,0,*5D
1486170269.52,19607,9.81,72736.8,-5.97,-20.63,-17.87,0,*5C
1486170270.75,19608,9.81,72736.0,-5.97,-20.63,-17.79,0,*52
1486170271.98,19609,9.81,72740.0,-5.97,-20.69,-17.79,0,*59
1486170273.18,19610,9.81,72738.8,-5.97,-20.69,-17.87,0,*50
1486170274.4,19611,9.81,72738.3,-5.95,-20.63,-17.87,0,*59
1486170275.62,19612,9.81,72740.5,-5.95,-20.63,-17.87,0,*5A
1486170276.85,19613,9.81,72740.0,-5.97,-20.83,-17.87,0,*57
1486170278.11,19614,9.81,72740.3,-5.95,-20.83,-17.93,0,*57
1486170279.37,19615,9.81,72736.8,-5.97,-20.83,-18.01,0,*50
1486170280.62,19616,9.81,72738.0,-5.97,-20.79,-18.01,0,*56
1486170281.88,19617,9.81,72738.3,-5.95,-20.79,-18.01,0,*55
1486170283.14,19618,9.81,72738.8,-5.95,-20.79,-18.01,0,*5A
1486170284.4,19619,9.81,72740.3,-5.95,-20.79,-18.01,0,*5B
1486170285.63,19620,9.81,72742.3,-5.97,-20.79,-17.87,0,*52
1486170286.88,19621,9.81,72742.0,-5.97,-20.79,-17.93,0,*56
1486170288.11,19622,9.81,72736.5,-5.97,-20.79,-18.07,0,*57
1486170289.35,19623,9.81,72738.5,-5.95,-20.79,-18.07,0,*54
1486170290.59,19624,9.81,72738.8,-5.95,-20.83,-18.07,0,*56
1486170291.82,19625,9.81,72740.8,-5.97,-20.83,-18.07,0,*55
1486170293.05,19626,9.81,72742.8,-5.97,-20.83,-18.07,0,*56
1486170294.29,19627,9.81,72742.0,-5.95,-20.83,-18.17,0,*54
1486170295.49,19628,9.81,72740.5,-5.95,-20.93,-18.17,0,*5A
1486170296.72,19629,9.81,72736.8,-5.97,-20.99,-18.17,0,*53
1486170297.95,19630,9.81,72736.0,-5.97,-20.79,-18.07,0,*54
1486170299.18,19631,9.81,72740.0,-5.97,-20.79,-18.07,0,*55
1486170300.41,19632,9.81,72740.3,-5.97,-20.83,-18.21,0,*57
1486170301.61,19633,9.81,72738.5,-5.95,-20.93,-18.17,0,*50
1486170302.82,19634,9.81,72740.5,-5.95,-20.93,-18.17,0,*57
1486170304.06,19635,9.81,72740.0,-5.95,-20.83,-18.21,0,*52
1486170305.29,19636,9.81,72740.5,-5.93,-20.93,-18.21,0,*56
1486170306.52,19637,9.81,72738.5,-5.97,-21.09,-18.31,0,*50
1486170307.75,19638,9.81,72740.8,-5.97,-20.83,-18.17,0,*58
1486170308.97,19639,9.81,72740.3,-5.97,-20.83,-18.21,0,*5C
1486170310.19,19640,9.81,72740.8,-5.95,-20.93,-18.21,0,*51
1486170311.39,19641,9.81,72740.8,-5.97,-20.93,-18.21,0,*52
1486170312.64,19642,9.81,72740.3,-5.97,-20.99,-18.35,0,*5E
1486170313.87,19643,9.81,72740.8,-5.97,-20.93,-18.35,0,*55
1486170315.14,19644,9.81,72742.5,-5.95,-20.99,-18.31,0,*5E
1486170316.37,19645,9.81,72742.0,-5.97,-20.93,-18.31,0,*57
1486170317.62,19646,9.81,72742.3,-5.95,-20.93,-18.31,0,*56
1486170318.85,19647,9.81,72740.5,-5.97,-20.93,-18.31,0,*55
1486170320.11,19648,9.81,72742.0,-5.97,-20.99,-18.35,0,*54
1486170321.34,19649,9.81,72742.0,-5.95,-20.93,-18.35,0,*5D
1486170322.6,19650,9.81,72740.8,-5.97,-20.99,-18.35,0,*5D
1486170323.87,19651,9.81,72740.8,-5.95,-20.99,-18.35,0,*5E
1486170325.12,19652,9.81,72742.0,-5.97,-20.99,-18.35,0,*5F
1486170326.35,19653,9.81,72740.8,-5.97,-20.99,-18.45,0,*59
1486170327.55,19654,9.81,72740.5,-5.97,-21.09,-18.49,0,*5A
1486170328.75,19655,9.81,72742.8,-5.97,-21.09,-18.45,0,*57
1486170329.95,19656,9.81,72738.8,-5.97,-21.09,-18.45,0,*54
1486170331.21,19657,9.81,72740.8,-5.95,-20.99,-18.35,0,*58
1486170332.45,19658,9.81,72742.0,-5.97,-20.93,-18.35,0,*5F
1486170333.68,19659,9.81,72740.3,-5.95,-20.99,-18.49,0,*5D
1486170334.88,19660,9.81,72736.3,-5.97,-20.93,-18.45,0,*53
1486170336.11,19661,9.81,72738.5,-5.97,-20.99,-18.49,0,*54
1486170337.32,19662,9.81,72742.0,-5.97,-20.93,-18.45,0,*51
1486170338.55,19663,9.81,72740.0,-5.95,-20.93,-18.35,0,*55
1486170339.79,19664,9.81,72740.0,-5.97,-20.93,-18.31,0,*54
1486170341.02,19665,9.81,72736.8,-5.97,-20.99,-18.49,0,*50
1486170342.24,19666,9.81,72740.5,-5.95,-21.09,-18.59,0,*58
1486170343.46,19667,9.81,72742.8,-5.95,-21.09,-18.59,0,*59
1486170344.69,19668,9.81,72740.0,-5.97,-20.99,-18.65,0,*53
1486170345.92,19669,9.81,72742.5,-5.95,-21.09,-18.59,0,*57
1486170347.13,19670,9.81,72742.3,-5.97,-21.09,-18.59,0,*5D
1486170348.34,19671,9.81,72738.8,-5.97,-21.13,-18.65,0,*58
1486170349.55,19672,9.81,72738.5,-5.95,-21.13,-18.65,0,*59
1486170350.75,19673,9.81,72742.0,-5.97,-21.09,-18.65,0,*51
1486170351.95,19674,9.81,72738.8,-5.97,-21.09,-18.65,0,*56
1486170353.16,19675,9.81,72738.0,-5.97,-21.09,-18.59,0,*58
1486170354.37,19676,9.81,72740.0,-5.97,-20.93,-18.45,0,*54
1486170355.6,19677,9.81,72740.5,-5.97,-20.99,-18.49,0,*53
1486170356.84,19678,9.81,72738.8,-5.97,-20.99,-18.59,0,*5D
1486170358.07,19679,9.81,72738.0,-5.97,-20.99,-18.65,0,*53
1486170359.27,19680,9.81,72740.5,-5.97,-21.09,-18.65,0,*5D
1486170360.47,19681,9.81,72740.3,-5.97,-21.09,-18.65,0,*5C
1486170361.7,19682,9.81,72740.5,-5.97,-20.99,-18.65,0,*57
1486170362.95,19683,9.81,72740.0,-5.97,-20.99,-18.59,0,*59
1486170364.14,19684,9.81,72742.5,-5.97,-21.09,-18.65,0,*59
1486170365.37,19685,9.81,72740.5,-5.97,-20.99,-18.65,0,*50
1486170366.6,19686,9.81,72740.0,-5.95,-21.09,-18.59,0,*56
1486170367.8,19687,9.81,72738.3,-5.97,-21.09,-18.65,0,*5A
1486170369.02,19688,9.81,72738.8,-5.97,-21.09,-18.59,0,*5A
1486170370.24,19689,9.81,72740.0,-5.97,-20.99,-18.65,0,*5C
1486170371.47,19690,9.81,72740.5,-5.97,-20.99,-18.65,0,*54
1486170372.7,19691,9.81,72742.8,-5.97,-20.99,-18.65,0,*55
1486170373.9,19692,9.81,72740.3,-5.97,-21.09,-18.65,0,*5E
1486170375.11,19693,9.81,72736.5,-5.97,-20.93,-18.65,0,*5D
1486170376.33,19694,9.81,72736.8,-5.97,-20.99,-18.65,0,*50
1486170377.56,19695,9.81,72738.5,-5.97,-20.99,-18.69,0,*5D
1486170378.76,19696,9.81,72742.5,-5.97,-21.13,-18.79,0,*5C
1486170379.97,19697,9.81,72740.8,-5.95,-21.13,-18.79,0,*5F
1486170381.16,19698,9.81,72742.0,-5.97,-21.13,-18.79,0,*52
1486170382.37,19699,9.81,72738.3,-5.97,-21.13,-18.69,0,*52
1486170383.56,19700,9.81,72740.5,-5.97,-21.09,-18.79,0,*59
1486170384.76,19701,9.81,72736.5,-5.97,-21.13,-18.69,0,*52
1486170385.96,19702,9.81,72740.8,-5.97,-21.09,-18.69,0,*5A
1486170387.16,19703,9.81,72744.3,-5.97,-21.09,-18.79,0,*5A
1486170388.35,19704,9.81,72740.0,-5.97,-21.09,-18.79,0,*5D
1486170389.55,19705,9.81,72740.8,-5.97,-21.09,-18.79,0,*5C
1486170390.74,19706,9.81,72738.5,-5.97,-21.09,-18.79,0,*5F
1486170391.97,19707,9.81,72742.0,-5.97,-20.99,-18.69,0,*57
1486170393.2,19708,9.81,72742.5,-5.97,-20.99,-18.69,0,*58
1486170394.42,19709,9.81,72740.5,-5.97,-20.99,-18.79,0,*58
1486170395.62,19710,9.81,72736.8,-5.97,-21.09,-18.79,0,*58
1486170396.81,19711,9.81,72738.8,-5.97,-21.13,-18.79,0,*52
1486170398.04,19712,9.81,72740.5,-5.99,-21.17,-18.83,0,*5E
1486170399.23,19713,9.81,72740.8,-5.97,-21.13,-18.79,0,*50
1486170400.43,19714,9.81,72738.5,-5.97,-21.13,-18.83,0,*52
1486170401.68,19715,9.81,72742.8,-5.99,-21.13,-18.89,0,*57
1486170402.87,19716,9.81,72740.8,-5.97,-21.09,-18.83,0,*5B
1486170404.09,19717,9.81,72738.5,-5.97,-20.99,-18.79,0,*57
1486170405.29,19718,9.81,72740.0,-5.97,-21.13,-18.79,0,*5B
1486170406.49,19719,9.81,72738.8,-5.97,-21.09,-18.79,0,*51
1486170407.68,19720,9.81,72740.3,-5.97,-21.13,-18.83,0,*55
1486170408.88,19721,9.81,72738.5,-5.97,-21.13,-18.83,0,*54
1486170410.08,19722,9.81,72740.8,-5.95,-21.09,-18.83,0,*5E
1486170411.33,19723,9.81,72740.8,-5.99,-21.13,-18.89,0,*52
1486170412.58,19724,9.81,72736.3,-5.99,-21.13,-18.89,0,*55
1486170413.77,19725,9.81,72742.3,-5.97,-21.13,-18.83,0,*50
1486170414.97,19726,9.81,72742.8,-5.97,-21.13,-18.83,0,*53
1486170416.17,19727,9.81,72740.3,-5.97,-21.13,-18.83,0,*52
1486170417.41,19728,9.81,72736.0,-5.99,-21.27,-18.99,0,*5F
1486170418.66,19729,9.81,72742.5,-5.99,-21.27,-18.99,0,*5E
1486170419.88,19730,9.81,72742.5,-5.97,-21.23,-19.07,0,*5A
1486170421.14,19731,9.81,72742.8,-5.97,-21.23,-18.93,0,*57
1486170422.36,19732,9.81,72740.0,-5.97,-21.09,-18.93,0,*5C
1486170423.59,19733,9.81,72740.8,-5.97,-21.13,-18.93,0,*56
1486170424.81,19734,9.81,72742.3,-5.99,-21.17,-18.99,0,*51
1486170426.06,19735,9.81,72738.8,-5.99,-21.27,-18.99,0,*53
1486170427.31,19736,9.81,72740.3,-5.99,-21.27,-19.03,0,*52
1486170428.53,19737,9.81,72740.8,-5.99,-21.13,-19.03,0,*54
1486170429.75,19738,9.81,72742.3,-5.99,-21.17,-18.99,0,*5D
1486170430.95,19739,9.81,72740.3,-6.01,-21.17,-18.99,0,*5E
1486170432.17,19740,9.81,72738.8,-5.99,-21.17,-19.03,0,*50
1486170433.4,19741,9.81,72740.0,-5.99,-21.17,-19.03,0,*51
1486170434.62,19742,9.81,72742.8,-5.99,-21.13,-19.03,0,*56
1486170435.84,19743,9.81,72740.5,-5.99,-21.17,-18.99,0,*51
1486170437.04,19744,9.81,72742.3,-6.01,-21.13,-18.99,0,*50
1486170438.24,19745,9.81,72736.0,-6.01,-21.17,-19.03,0,*57
1486170439.47,19746,9.81,72740.3,-6.01,-21.27,-19.13,0,*56
1486170440.7,19747,9.81,72738.8,-5.99,-21.17,-19.13,0,*56
1486170441.9,19748,9.81,72744.0,-6.01,-21.17,-19.03,0,*5A
1486170443.15,19749,9.81,72738.8,-5.99,-21.27,-19.17,0,*5F
1486170444.4,19750,9.81,72740.3,-5.99,-21.27,-19.17,0,*57
1486170445.65,19751,9.81,72744.5,-5.99,-21.27,-19.03,0,*53
1486170446.86,19752,9.81,72744.8,-6.01,-21.13,-19.13,0,*54
1486170448.08,19753,9.81,72742.0,-5.99,-21.17,-19.03,0,*52
1486170449.3,19754,9.81,72740.0,-5.99,-21.13,-19.03,0,*51
1486170450.5,19755,9.81,72740.3,-6.01,-21.13,-18.99,0,*50
1486170451.7,19756,9.81,72746.0,-6.01,-21.13,-18.99,0,*53
1486170452.92,19757,9.81,72742.8,-5.99,-21.17,-19.03,0,*56
1486170454.12,19758,9.81,72740.5,-6.01,-21.17,-19.13,0,*5A
1486170455.36,19759,9.81,72740.8,-5.99,-21.17,-19.13,0,*59
1486170456.59,19760,9.81,72738.8,-5.99,-21.17,-19.13,0,*53
1486170457.81,19761,9.81,72742.0,-5.99,-21.17,-19.03,0,*53
1486170459.0,19762,9.81,72740.8,-6.01,-21.13,-19.03,0,*56
1486170460.23,19763,9.81,72740.5,-5.99,-21.13,-19.03,0,*55
1486170461.46,19764,9.81,72740.3,-5.99,-21.17,-19.13,0,*57
1486170462.68,19765,9.81,72742.0,-5.99,-21.17,-19.13,0,*56
1486170463.96,19766,9.81,72740.0,-5.99,-21.27,-19.27,0,*51
1486170465.2,19767,9.81,72738.8,-6.01,-21.27,-19.17,0,*51
1486170466.45,19768,9.81,72740.0,-5.99,-21.27,-19.17,0,*5C
1486170467.66,19769,9.81,72738.0,-6.01,-21.13,-19.13,0,*5C
1486170468.89,19770,9.81,72742.0,-5.99,-21.17,-19.13,0,*52
1486170470.14,19771,9.81,72740.8,-5.99,-21.27,-19.17,0,*54
1486170471.37,19772,9.81,72742.3,-5.99,-21.17,-19.17,0,*54
1486170472.58,19773,9.81,72740.0,-6.01,-21.13,-19.17,0,*53
1486170473.78,19774,9.81,72742.0,-6.01,-21.13,-19.13,0,*50
1486170475.04,19775,9.81,72742.5,-5.99,-21.27,-19.13,0,*54
1486170476.29,19776,9.81,72742.3,-5.99,-21.17,-19.27,0,*53
1486170477.52,19777,9.81,72738.0,-5.99,-21.17,-19.13,0,*55
1486170478.75,19778,9.81,72740.8,-6.01,-21.17,-19.27,0,*5F
1486170479.96,19779,9.81,72744.5,-6.01,-21.13,-19.17,0,*59
1486170481.16,19780,9.81,72740.5,-6.01,-21.17,-19.13,0,*5F
1486170482.44,19781,9.81,72738.8,-5.99,-21.27,-19.27,0,*58
1486170483.65,19782,9.81,72738.8,-6.01,-21.17,-19.13,0,*5D
1486170484.85,19783,9.81,72738.0,-6.01,-21.17,-19.17,0,*58
1486170486.06,19784,9.81,72742.8,-6.01,-21.17,-19.17,0,*5F
1486170487.27,19785,9.81,72740.0,-6.01,-21.17,-19.17,0,*5E
1486170488.5,19786,9.81,72736.8,-6.01,-21.27,-19.17,0,*5E
1486170489.78,19787,9.81,72742.3,-5.99,-21.27,-19.27,0,*5E
1486170491.0,19788,9.81,72742.3,-5.99,-21.17,-19.17,0,*51
1486170492.23,19789,9.81,72736.5,-5.99,-21.13,-19.17,0,*54
1486170493.44,19790,9.81,72740.0,-6.01,-21.13,-19.17,0,*5E
1486170494.67,19791,9.81,72740.5,-6.01,-21.13,-19.31,0,*5B
1486170495.95,19792,9.81,72744.3,-5.99,-21.27,-19.27,0,*5A
1486170497.23,19793,9.81,72742.0,-5.99,-21.27,-19.27,0,*5B
1486170498.48,19794,9.81,72740.5,-6.01,-21.33,-19.31,0,*5C
1486170499.76,19795,9.81,72742.0,-5.99,-21.33,-19.31,0,*5F